Tracking 32964 objects as of 20-Jan-2026
HD Live streaming from Space Station
objects crossing your sky now

FENGYUN 1C DEB

Track FENGYUN 1C DEB now!
10-day predictions


NORAD ID: 30338
Int'l Code: 1999-025AAZ
Perigee: 546.6 km
Apogee: 931.8 km
Inclination: 98.5 °
Period: 99.4 minutes
Semi major axis: 7110 km
RCS: 0.0507 m2 (small)
Launch date: May 10, 1999
Source: People's Republic of China (PRC)
Launch site: Taiyaun Space Center, China (TSC)

Note: This is SATELLITE DEBRIS
Your satellite tracking list
Your tracking list is empty




NASA's NSSDC Master Catalog

Two Line Element Set (TLE):
1 30338U 99025AAZ 26020.13589648  .00006603  00000-0  11237-2 0  9997
2 30338  98.4544  94.9006 0270856  77.4844 314.4059 14.48037530987008
Source of the keplerian elements: AFSPC